Location: Ab? ar R?sh Ba?r?
(24.1861°N, 32.8847°E)
Time: 11:12:12
(UTC+00:00)

USA 267 - Pass Details

Date: 24 October 2021
Orbit: 1101 x 1107 km, 123.0° (Epoch: 27 November)

Event Time Altitude Azimuth Distance (km) Brightness Sun altitude
Exits shadow 17:53:51 46° 226° (SW) 1,446 4.0 -36.9°
Maximum altitude 17:54:11 46° 234° (SW) 1,439 4.0 -37.0°
Drops below altitude 10° 18:00:23 10° 306° (NW) 2,954 6.0 -38.4°
Sets 18:02:59 0° 312° (NW) 3,913 6.7 -39.0°
